PIMOHWEATHER Station Historical Data
Daily Summary for March 28, 2020 Units:  Metric    English   Both
Daily Weekly Monthly Yearly
  High: Low: Average:
Temperature: 36.0 °C 26.0 °C 30.7 °C
Dew Point: 26.0 °C 21.0 °C 23.8 °C
Humidity: 82% 46% 68%
Wind Speed: 37km/h 0km/h 10km/h
Wind Gust: 40km/h - -
Wind- - SSE
Pressure: 1011.5 hPa 1006.1 hPa -
Precipitation: 0.00 mm    
 
 
Tabular Data for March 28, 2020
Time Temperature Dew Point Pressure Wind Wind Speed Wind Gust Humidity Rainfall Rate (Hourly) solar
00:04 29.0 °C 23.0 °C 1010.2 hPa NE 4 km/h 4 km/h 73% 0.00 mm 0.00 W/m2
00:09 29.0 °C 23.0 °C 1010.2 hPa ESE 3 km/h 4 km/h 73% 0.00 mm 0.00 W/m2
00:14 29.0 °C 23.0 °C 1010.2 hPa East 1 km/h 4 km/h 73% 0.00 mm 0.00 W/m2
00:19 29.0 °C 23.0 °C 1009.8 hPa NNW 1 km/h 4 km/h 73% 0.00 mm 0.00 W/m2
00:24 29.0 °C 23.0 °C 1009.8 hPa Calm   4 km/h 73% 0.00 mm 0.00 W/m2
00:29 29.0 °C 23.0 °C 1010.2 hPa SE 1 km/h 4 km/h 73% 0.00 mm 0.00 W/m2
00:34 29.0 °C 23.0 °C 1009.8 hPa Calm   4 km/h 73% 0.00 mm 0.00 W/m2
00:39 29.0 °C 23.0 °C 1009.8 hPa ESE 3 km/h 4 km/h 73% 0.00 mm 0.00 W/m2
00:44 29.0 °C 23.0 °C 1009.8 hPa ESE 4 km/h 4 km/h 73% 0.00 mm 0.00 W/m2
00:49 28.0 °C 23.0 °C 1009.8 hPa Calm     73% 0.00 mm 0.00 W/m2
00:54 28.0 °C 23.0 °C 1010.2 hPa NNE 1 km/h 4 km/h 73% 0.00 mm 0.00 W/m2
00:59 28.0 °C 23.0 °C 1009.8 hPa Calm     73% 0.00 mm 0.00 W/m2
01:04 28.0 °C 23.0 °C 1009.8 hPa Calm   4 km/h 73% 0.00 mm 0.00 W/m2
01:09 28.0 °C 23.0 °C 1009.8 hPa Calm   4 km/h 73% 0.00 mm 0.00 W/m2
01:14 29.0 °C 23.0 °C 1009.5 hPa Calm   4 km/h 73% 0.00 mm 0.00 W/m2
01:19 28.0 °C 23.0 °C 1009.5 hPa ENE 2 km/h 4 km/h 73% 0.00 mm 0.00 W/m2
01:24 28.0 °C 23.0 °C 1009.5 hPa Calm     73% 0.00 mm 0.00 W/m2
01:29 28.0 °C 23.0 °C 1009.5 hPa ENE 5 km/h 8 km/h 73% 0.00 mm 0.00 W/m2
01:34 28.0 °C 23.0 °C 1009.5 hPa Calm   4 km/h 73% 0.00 mm 0.00 W/m2
01:39 28.0 °C 23.0 °C 1009.5 hPa Calm   4 km/h 73% 0.00 mm 0.00 W/m2
01:44 28.0 °C 23.0 °C 1009.5 hPa Calm     73% 0.00 mm 0.00 W/m2
01:49 28.0 °C 23.0 °C 1009.5 hPa NNE 5 km/h 8 km/h 74% 0.00 mm 0.00 W/m2
01:54 28.0 °C 23.0 °C 1009.5 hPa NE 4 km/h 4 km/h 74% 0.00 mm 0.00 W/m2
01:59 28.0 °C 23.0 °C 1009.5 hPa Calm     74% 0.00 mm 0.00 W/m2
02:04 28.0 °C 23.0 °C 1009.5 hPa Calm     74% 0.00 mm 0.00 W/m2
02:09 28.0 °C 23.0 °C 1009.5 hPa Calm     74% 0.00 mm 0.00 W/m2
02:14 28.0 °C 23.0 °C 1009.5 hPa NNE 4 km/h 4 km/h 74% 0.00 mm 0.00 W/m2
02:19 28.0 °C 23.0 °C 1009.5 hPa North 7 km/h 8 km/h 75% 0.00 mm 0.00 W/m2
02:24 28.0 °C 23.0 °C 1009.5 hPa NNE 7 km/h 8 km/h 75% 0.00 mm 0.00 W/m2
02:29 28.0 °C 23.0 °C 1009.5 hPa NNE 6 km/h 8 km/h 76% 0.00 mm 0.00 W/m2
02:34 28.0 °C 23.0 °C 1009.1 hPa North 5 km/h 8 km/h 76% 0.00 mm 0.00 W/m2
02:39 28.0 °C 23.0 °C 1009.5 hPa North 7 km/h 8 km/h 76% 0.00 mm 0.00 W/m2
02:44 28.0 °C 23.0 °C 1009.1 hPa North 7 km/h 8 km/h 77% 0.00 mm 0.00 W/m2
02:49 27.0 °C 23.0 °C 1009.1 hPa North 6 km/h 8 km/h 77% 0.00 mm 0.00 W/m2
02:54 27.0 °C 23.0 °C 1009.1 hPa North 8 km/h 8 km/h 77% 0.00 mm 0.00 W/m2
02:59 27.0 °C 23.0 °C 1009.5 hPa North 8 km/h 12 km/h 78% 0.00 mm 0.00 W/m2
03:04 27.0 °C 23.0 °C 1009.1 hPa North 7 km/h 8 km/h 78% 0.00 mm 0.00 W/m2
03:09 27.0 °C 23.0 °C 1009.1 hPa NNW 3 km/h 4 km/h 78% 0.00 mm 0.00 W/m2
03:14 27.0 °C 23.0 °C 1009.1 hPa NW 4 km/h 4 km/h 78% 0.00 mm 0.00 W/m2
03:19 27.0 °C 23.0 °C 1009.1 hPa NNW 4 km/h 8 km/h 78% 0.00 mm 0.00 W/m2
03:24 27.0 °C 23.0 °C 1009.1 hPa North 4 km/h 4 km/h 78% 0.00 mm 0.00 W/m2
03:29 27.0 °C 23.0 °C 1009.1 hPa NW 5 km/h 8 km/h 77% 0.00 mm 0.00 W/m2
03:34 27.0 °C 23.0 °C 1009.1 hPa North 4 km/h 4 km/h 77% 0.00 mm 0.00 W/m2
03:39 27.0 °C 23.0 °C 1009.1 hPa Calm   4 km/h 77% 0.00 mm 0.00 W/m2
03:44 27.0 °C 23.0 °C 1009.1 hPa Calm     77% 0.00 mm 0.00 W/m2
03:49 27.0 °C 23.0 °C 1009.1 hPa Calm     77% 0.00 mm 0.00 W/m2
03:54 27.0 °C 23.0 °C 1009.1 hPa North 3 km/h 4 km/h 77% 0.00 mm 0.00 W/m2
03:59 27.0 °C 23.0 °C 1009.5 hPa North 4 km/h 4 km/h 77% 0.00 mm 0.00 W/m2
04:04 27.0 °C 23.0 °C 1009.1 hPa Calm     77% 0.00 mm 0.00 W/m2
04:09 27.0 °C 23.0 °C 1009.1 hPa Calm     77% 0.00 mm 0.00 W/m2
04:14 27.0 °C 23.0 °C 1009.1 hPa Calm   4 km/h 77% 0.00 mm 0.00 W/m2
04:19 27.0 °C 23.0 °C 1009.5 hPa NNW 3 km/h 4 km/h 78% 0.00 mm 0.00 W/m2
04:24 27.0 °C 23.0 °C 1009.5 hPa North 4 km/h 4 km/h 78% 0.00 mm 0.00 W/m2
04:29 27.0 °C 23.0 °C 1009.5 hPa NW 5 km/h 8 km/h 78% 0.00 mm 0.00 W/m2
04:34 27.0 °C 23.0 °C 1009.5 hPa North 6 km/h 8 km/h 78% 0.00 mm 0.00 W/m2
04:39 27.0 °C 23.0 °C 1009.5 hPa North 4 km/h 4 km/h 79% 0.00 mm 0.00 W/m2
04:44 27.0 °C 23.0 °C 1009.5 hPa North 4 km/h 4 km/h 79% 0.00 mm 0.00 W/m2
04:49 27.0 °C 23.0 °C 1009.8 hPa North 8 km/h 12 km/h 79% 0.00 mm 0.00 W/m2
04:54 27.0 °C 23.0 °C 1009.5 hPa North 6 km/h 8 km/h 79% 0.00 mm 0.00 W/m2
04:59 27.0 °C 23.0 °C 1009.5 hPa North 8 km/h 12 km/h 80% 0.00 mm 0.00 W/m2
05:04 27.0 °C 23.0 °C 1009.8 hPa North 12 km/h 12 km/h 80% 0.00 mm 0.00 W/m2
05:09 27.0 °C 23.0 °C 1009.8 hPa NNE 9 km/h 12 km/h 80% 0.00 mm 0.00 W/m2
05:14 26.0 °C 23.0 °C 1009.8 hPa NNE 10 km/h 12 km/h 80% 0.00 mm 0.00 W/m2
05:19 26.0 °C 23.0 °C 1009.8 hPa NNW 7 km/h 8 km/h 80% 0.00 mm 0.00 W/m2
05:24 26.0 °C 23.0 °C 1009.5 hPa North 9 km/h 12 km/h 81% 0.00 mm 0.00 W/m2
05:29 26.0 °C 23.0 °C 1009.5 hPa North 10 km/h 12 km/h 81% 0.00 mm 0.00 W/m2
05:34 26.0 °C 23.0 °C 1009.5 hPa NNE 7 km/h 8 km/h 81% 0.00 mm 0.00 W/m2
05:39 26.0 °C 23.0 °C 1009.8 hPa North 8 km/h 12 km/h 81% 0.00 mm 0.00 W/m2
05:44 26.0 °C 23.0 °C 1009.8 hPa NNE 7 km/h 8 km/h 81% 0.00 mm 0.00 W/m2
05:49 26.0 °C 23.0 °C 1009.8 hPa North 7 km/h 8 km/h 81% 0.00 mm 0.00 W/m2
05:54 26.0 °C 23.0 °C 1009.8 hPa North 5 km/h 8 km/h 81% 0.00 mm 1.53 W/m2
05:59 26.0 °C 23.0 °C 1010.2 hPa NNE 5 km/h 8 km/h 81% 0.00 mm 4.75 W/m2
06:04 26.0 °C 23.0 °C 1010.2 hPa NNE 8 km/h 12 km/h 82% 0.00 mm 9.10 W/m2
06:09 26.0 °C 23.0 °C 1009.8 hPa North 5 km/h 8 km/h 82% 0.00 mm 16.22 W/m2
06:14 26.0 °C 23.0 °C 1010.2 hPa NNE 5 km/h 8 km/h 82% 0.00 mm 21.57 W/m2
06:19 26.0 °C 23.0 °C 1010.2 hPa NNE 4 km/h 4 km/h 81% 0.00 mm 26.71 W/m2
06:24 26.0 °C 23.0 °C 1010.2 hPa NW 1 km/h 4 km/h 81% 0.00 mm 31.93 W/m2
06:29 26.0 °C 23.0 °C 1010.2 hPa NNE 5 km/h 8 km/h 81% 0.00 mm 36.23 W/m2
06:34 26.0 °C 23.0 °C 1010.2 hPa NNE 6 km/h 8 km/h 81% 0.00 mm 40.67 W/m2
06:39 27.0 °C 23.0 °C 1010.5 hPa NNW 5 km/h 8 km/h 80% 0.00 mm 45.31 W/m2
06:44 27.0 °C 23.0 °C 1010.5 hPa NNE 7 km/h 8 km/h 80% 0.00 mm 61.08 W/m2
06:49 27.0 °C 23.0 °C 1010.2 hPa NNE 6 km/h 8 km/h 80% 0.00 mm 138.90 W/m2
06:54 27.0 °C 23.0 °C 1010.2 hPa NNE 5 km/h 8 km/h 80% 0.00 mm 152.08 W/m2
06:59 27.0 °C 23.0 °C 1010.2 hPa North 4 km/h 8 km/h 79% 0.00 mm 163.44 W/m2
07:04 28.0 °C 24.0 °C 1010.5 hPa NW 5 km/h 8 km/h 78% 0.00 mm 175.30 W/m2
07:09 29.0 °C 24.0 °C 1010.5 hPa ENE 2 km/h 4 km/h 76% 0.00 mm 186.09 W/m2
07:14 29.0 °C 24.0 °C 1010.5 hPa North 5 km/h 8 km/h 75% 0.00 mm 194.95 W/m2
07:19 29.0 °C 24.0 °C 1010.8 hPa North 4 km/h 4 km/h 75% 0.00 mm 205.45 W/m2
07:24 29.0 °C 24.0 °C 1010.8 hPa NNE 5 km/h 8 km/h 75% 0.00 mm 214.28 W/m2
07:29 30.0 °C 24.0 °C 1010.8 hPa Calm     74% 0.00 mm 225.83 W/m2
07:34 30.0 °C 24.0 °C 1010.8 hPa North 4 km/h 8 km/h 73% 0.00 mm 232.24 W/m2
07:39 30.0 °C 24.0 °C 1010.8 hPa NNW 3 km/h 4 km/h 73% 0.00 mm 238.60 W/m2
07:44 30.0 °C 24.0 °C 1010.8 hPa SSW 1 km/h 4 km/h 71% 0.00 mm 249.98 W/m2
07:49 31.0 °C 25.0 °C 1010.8 hPa ESE 3 km/h 4 km/h 70% 0.00 mm 259.05 W/m2
07:54 31.0 °C 25.0 °C 1011.2 hPa South 4 km/h 4 km/h 69% 0.00 mm 265.83 W/m2
07:59 31.0 °C 24.0 °C 1011.2 hPa NW 6 km/h 8 km/h 71% 0.00 mm 271.36 W/m2
08:04 30.0 °C 24.0 °C 1011.2 hPa WNW 6 km/h 8 km/h 71% 0.00 mm 276.48 W/m2
08:09 31.0 °C 25.0 °C 1011.2 hPa SSE 3 km/h 4 km/h 70% 0.00 mm 283.18 W/m2
08:14 32.0 °C 25.0 °C 1011.2 hPa NNW 2 km/h 4 km/h 68% 0.00 mm 299.74 W/m2
08:19 32.0 °C 24.0 °C 1011.2 hPa SE 4 km/h 8 km/h 66% 0.00 mm 311.51 W/m2
08:24 32.0 °C 24.0 °C 1011.2 hPa SE 2 km/h 4 km/h 66% 0.00 mm 316.36 W/m2
08:29 33.0 °C 25.0 °C 1011.2 hPa NE 1 km/h 4 km/h 64% 0.00 mm 321.03 W/m2
08:34 32.0 °C 25.0 °C 1011.2 hPa SSE 6 km/h 8 km/h 65% 0.00 mm 335.93 W/m2
08:39 32.0 °C 25.0 °C 1011.2 hPa South 5 km/h 8 km/h 64% 0.00 mm 333.48 W/m2
08:44 33.0 °C 25.0 °C 1011.2 hPa East 5 km/h 8 km/h 64% 0.00 mm 338.48 W/m2
08:49 33.0 °C 25.0 °C 1011.2 hPa East 8 km/h 8 km/h 62% 0.00 mm 355.60 W/m2
08:54 33.0 °C 24.0 °C 1011.2 hPa NE 8 km/h 12 km/h 63% 0.00 mm 361.23 W/m2
08:59 33.0 °C 24.0 °C 1011.2 hPa NE 5 km/h 8 km/h 63% 0.00 mm 368.74 W/m2
09:04 32.0 °C 24.0 °C 1011.2 hPa NNW 3 km/h 4 km/h 65% 0.00 mm 368.96 W/m2
09:09 33.0 °C 25.0 °C 1011.5 hPa South 3 km/h 4 km/h 65% 0.00 mm 394.31 W/m2
09:14 33.0 °C 25.0 °C 1011.2 hPa SW 4 km/h 8 km/h 65% 0.00 mm 409.90 W/m2
09:19 32.0 °C 25.0 °C 1011.2 hPa WNW 10 km/h 12 km/h 67% 0.00 mm 416.70 W/m2
09:24 32.0 °C 25.0 °C 1011.2 hPa SSW 12 km/h 16 km/h 68% 0.00 mm 407.72 W/m2
09:29 31.0 °C 25.0 °C 1011.2 hPa SSW 12 km/h 16 km/h 68% 0.00 mm 396.49 W/m2
09:34 32.0 °C 25.0 °C 1011.2 hPa South 14 km/h 20 km/h 68% 0.00 mm 405.00 W/m2
09:39 31.0 °C 25.0 °C 1011.2 hPa South 9 km/h 12 km/h 69% 0.00 mm 449.14 W/m2
09:44 31.0 °C 25.0 °C 1011.2 hPa South 12 km/h 12 km/h 69% 0.00 mm 453.72 W/m2
09:49 32.0 °C 25.0 °C 1011.2 hPa South 10 km/h 12 km/h 69% 0.00 mm 463.14 W/m2
09:54 32.0 °C 25.0 °C 1011.2 hPa SSW 10 km/h 12 km/h 67% 0.00 mm 442.66 W/m2
09:59 32.0 °C 25.0 °C 1011.2 hPa WSW 10 km/h 12 km/h 67% 0.00 mm 444.64 W/m2
10:04 32.0 °C 25.0 °C 1010.8 hPa SW 8 km/h 12 km/h 67% 0.00 mm 427.95 W/m2
10:09 32.0 °C 25.0 °C 1011.2 hPa SSE 11 km/h 16 km/h 68% 0.00 mm 168.40 W/m2
10:14 31.0 °C 25.0 °C 1010.8 hPa South 9 km/h 12 km/h 69% 0.00 mm 233.66 W/m2
10:19 32.0 °C 25.0 °C 1010.8 hPa South 9 km/h 12 km/h 68% 0.00 mm 431.99 W/m2
10:24 32.0 °C 25.0 °C 1010.8 hPa SSE 10 km/h 12 km/h 67% 0.00 mm 440.65 W/m2
10:29 32.0 °C 25.0 °C 1010.8 hPa NW 9 km/h 12 km/h 66% 0.00 mm 469.99 W/m2
10:34 32.0 °C 25.0 °C 1010.8 hPa West 17 km/h 20 km/h 66% 0.00 mm 465.44 W/m2
10:39 33.0 °C 25.0 °C 1010.5 hPa WNW 16 km/h 20 km/h 68% 0.00 mm 455.72 W/m2
10:44 32.0 °C 25.0 °C 1010.5 hPa WNW 16 km/h 20 km/h 67% 0.00 mm 456.80 W/m2
10:49 32.0 °C 25.0 °C 1010.5 hPa WNW 14 km/h 24 km/h 67% 0.00 mm 487.26 W/m2
10:54 33.0 °C 25.0 °C 1010.5 hPa SSW 10 km/h 12 km/h 67% 0.00 mm 508.60 W/m2
10:59 33.0 °C 26.0 °C 1010.5 hPa SW 12 km/h 16 km/h 66% 0.00 mm 476.69 W/m2
11:04 33.0 °C 26.0 °C 1010.2 hPa South 17 km/h 20 km/h 64% 0.00 mm 493.38 W/m2
11:09 33.0 °C 25.0 °C 1010.5 hPa South 16 km/h 20 km/h 66% 0.00 mm 511.87 W/m2
11:14 33.0 °C 25.0 °C 1010.2 hPa SSW 16 km/h 16 km/h 66% 0.00 mm 514.17 W/m2
11:19 33.0 °C 26.0 °C 1010.2 hPa SW 11 km/h 16 km/h 65% 0.00 mm 513.22 W/m2
11:24 33.0 °C 26.0 °C 1010.2 hPa SW 13 km/h 16 km/h 66% 0.00 mm 493.01 W/m2
11:29 33.0 °C 25.0 °C 1010.2 hPa SW 10 km/h 12 km/h 66% 0.00 mm 490.32 W/m2
11:34 33.0 °C 25.0 °C 1010.2 hPa West 15 km/h 16 km/h 67% 0.00 mm 477.96 W/m2
11:39 32.0 °C 25.0 °C 1010.2 hPa WNW 14 km/h 20 km/h 67% 0.00 mm 468.91 W/m2
11:44 32.0 °C 25.0 °C 1009.8 hPa South 11 km/h 16 km/h 67% 0.00 mm 462.67 W/m2
11:49 33.0 °C 25.0 °C 1009.8 hPa WNW 10 km/h 12 km/h 66% 0.00 mm 469.25 W/m2
11:54 33.0 °C 25.0 °C 1009.5 hPa SW 6 km/h 8 km/h 65% 0.00 mm 470.16 W/m2
11:59 33.0 °C 26.0 °C 1009.5 hPa SSE 11 km/h 16 km/h 65% 0.00 mm 472.21 W/m2
12:04 33.0 °C 25.0 °C 1009.1 hPa South 15 km/h 16 km/h 66% 0.00 mm 468.52 W/m2
12:09 33.0 °C 26.0 °C 1009.1 hPa South 13 km/h 16 km/h 66% 0.00 mm 471.85 W/m2
12:14 33.0 °C 25.0 °C 1009.1 hPa South 11 km/h 16 km/h 65% 0.00 mm 478.43 W/m2
12:19 33.0 °C 25.0 °C 1009.1 hPa NW 14 km/h 20 km/h 66% 0.00 mm 473.34 W/m2
12:24 33.0 °C 26.0 °C 1009.1 hPa SW 14 km/h 20 km/h 64% 0.00 mm 482.88 W/m2
12:29 33.0 °C 26.0 °C 1008.8 hPa SSW 14 km/h 20 km/h 64% 0.00 mm 485.03 W/m2
12:34 33.0 °C 25.0 °C 1009.1 hPa South 14 km/h 16 km/h 64% 0.00 mm 486.36 W/m2
12:39 34.0 °C 26.0 °C 1008.8 hPa South 13 km/h 16 km/h 63% 0.00 mm 491.76 W/m2
12:44 34.0 °C 26.0 °C 1008.8 hPa SSW 9 km/h 12 km/h 62% 0.00 mm 502.87 W/m2
12:49 34.0 °C 25.0 °C 1008.8 hPa SSW 15 km/h 20 km/h 63% 0.00 mm 514.79 W/m2
12:54 34.0 °C 25.0 °C 1008.8 hPa South 10 km/h 16 km/h 64% 0.00 mm 490.91 W/m2
12:59 34.0 °C 26.0 °C 1008.5 hPa SSW 12 km/h 16 km/h 63% 0.00 mm 489.27 W/m2
13:04 34.0 °C 25.0 °C 1008.5 hPa South 15 km/h 20 km/h 63% 0.00 mm 491.25 W/m2
13:09 34.0 °C 25.0 °C 1008.1 hPa SSW 12 km/h 16 km/h 63% 0.00 mm 490.81 W/m2
13:14 34.0 °C 25.0 °C 1008.1 hPa SW 13 km/h 20 km/h 62% 0.00 mm 487.68 W/m2
13:19 34.0 °C 26.0 °C 1007.8 hPa South 18 km/h 20 km/h 63% 0.00 mm 485.89 W/m2
13:24 34.0 °C 26.0 °C 1007.8 hPa WSW 9 km/h 16 km/h 64% 0.00 mm 480.63 W/m2
13:29 34.0 °C 26.0 °C 1007.8 hPa South 12 km/h 16 km/h 63% 0.00 mm 483.91 W/m2
13:34 34.0 °C 25.0 °C 1007.8 hPa West 9 km/h 16 km/h 61% 0.00 mm 484.50 W/m2
13:39 34.0 °C 25.0 °C 1007.5 hPa SW 11 km/h 16 km/h 61% 0.00 mm 485.65 W/m2
13:44 34.0 °C 25.0 °C 1007.5 hPa South 11 km/h 16 km/h 61% 0.00 mm 484.64 W/m2
13:49 35.0 °C 26.0 °C 1007.5 hPa SW 15 km/h 20 km/h 60% 0.00 mm 487.53 W/m2
13:54 35.0 °C 26.0 °C 1007.5 hPa SSE 14 km/h 16 km/h 60% 0.00 mm 489.95 W/m2
13:59 35.0 °C 26.0 °C 1007.5 hPa SSW 12 km/h 16 km/h 59% 0.00 mm 482.34 W/m2
14:04 35.0 °C 25.0 °C 1007.5 hPa SW 10 km/h 16 km/h 59% 0.00 mm 474.76 W/m2
14:09 35.0 °C 25.0 °C 1007.1 hPa WSW 15 km/h 20 km/h 59% 0.00 mm 481.78 W/m2
14:14 35.0 °C 25.0 °C 1007.1 hPa South 14 km/h 16 km/h 59% 0.00 mm 484.10 W/m2
14:19 35.0 °C 25.0 °C 1006.8 hPa South 9 km/h 16 km/h 57% 0.00 mm 479.24 W/m2
14:24 36.0 °C 25.0 °C 1006.8 hPa SSW 5 km/h 12 km/h 56% 0.00 mm 477.08 W/m2
14:29 35.0 °C 25.0 °C 1006.8 hPa South 13 km/h 16 km/h 56% 0.00 mm 479.55 W/m2
14:34 35.0 °C 25.0 °C 1006.8 hPa SSE 15 km/h 20 km/h 57% 0.00 mm 470.21 W/m2
14:39 34.0 °C 25.0 °C 1006.8 hPa SSE 18 km/h 20 km/h 58% 0.00 mm 466.61 W/m2
14:44 34.0 °C 24.0 °C 1006.8 hPa SSE 18 km/h 24 km/h 55% 0.00 mm 469.50 W/m2
14:49 35.0 °C 24.0 °C 1006.8 hPa SE 19 km/h 28 km/h 54% 0.00 mm 463.36 W/m2
14:54 35.0 °C 24.0 °C 1006.4 hPa SE 18 km/h 24 km/h 54% 0.00 mm 456.14 W/m2
14:59 35.0 °C 24.0 °C 1006.4 hPa SE 27 km/h 32 km/h 54% 0.00 mm 450.07 W/m2
15:04 35.0 °C 24.0 °C 1006.4 hPa SE 27 km/h 28 km/h 54% 0.00 mm 456.55 W/m2
15:09 35.0 °C 24.0 °C 1006.4 hPa SSE 18 km/h 24 km/h 54% 0.00 mm 456.16 W/m2
15:14 35.0 °C 24.0 °C 1006.4 hPa SSE 25 km/h 28 km/h 53% 0.00 mm 451.49 W/m2
15:19 35.0 °C 24.0 °C 1006.4 hPa SE 31 km/h 32 km/h 54% 0.00 mm 442.80 W/m2
15:24 35.0 °C 24.0 °C 1006.8 hPa SSE 24 km/h 28 km/h 55% 0.00 mm 429.18 W/m2
15:29 35.0 °C 24.0 °C 1006.4 hPa SE 21 km/h 24 km/h 55% 0.00 mm 419.95 W/m2
15:34 35.0 °C 24.0 °C 1006.4 hPa SE 23 km/h 28 km/h 55% 0.00 mm 422.01 W/m2
15:39 35.0 °C 24.0 °C 1006.1 hPa SE 21 km/h 24 km/h 55% 0.00 mm 420.88 W/m2
15:44 35.0 °C 24.0 °C 1006.4 hPa SE 19 km/h 24 km/h 55% 0.00 mm 405.71 W/m2
15:49 35.0 °C 24.0 °C 1006.1 hPa SE 23 km/h 32 km/h 55% 0.00 mm 401.87 W/m2
15:54 35.0 °C 24.0 °C 1006.1 hPa SE 26 km/h 28 km/h 54% 0.00 mm 388.51 W/m2
15:59 34.0 °C 24.0 °C 1006.1 hPa SSE 22 km/h 24 km/h 54% 0.00 mm 384.69 W/m2
16:04 35.0 °C 23.0 °C 1006.1 hPa SE 19 km/h 24 km/h 52% 0.00 mm 375.54 W/m2
16:09 35.0 °C 23.0 °C 1006.1 hPa SE 33 km/h 40 km/h 51% 0.00 mm 362.36 W/m2
16:14 34.0 °C 22.0 °C 1006.1 hPa SE 30 km/h 40 km/h 49% 0.00 mm 364.73 W/m2
16:19 34.0 °C 22.0 °C 1006.1 hPa SSE 27 km/h 32 km/h 49% 0.00 mm 360.72 W/m2
16:24 35.0 °C 21.0 °C 1006.1 hPa SE 26 km/h 36 km/h 46% 0.00 mm 339.43 W/m2
16:29 34.0 °C 22.0 °C 1006.1 hPa SE 25 km/h 32 km/h 49% 0.00 mm 329.03 W/m2
16:34 34.0 °C 22.0 °C 1006.1 hPa SE 37 km/h 40 km/h 49% 0.00 mm 319.59 W/m2
16:39 34.0 °C 22.0 °C 1006.1 hPa SE 29 km/h 36 km/h 49% 0.00 mm 299.23 W/m2
16:44 35.0 °C 22.0 °C 1006.1 hPa SE 26 km/h 32 km/h 49% 0.00 mm 290.98 W/m2
16:49 35.0 °C 22.0 °C 1006.1 hPa ESE 25 km/h 28 km/h 49% 0.00 mm 276.21 W/m2
16:54 34.0 °C 22.0 °C 1006.1 hPa SE 28 km/h 32 km/h 49% 0.00 mm 264.07 W/m2
16:59 34.0 °C 22.0 °C 1006.1 hPa SE 30 km/h 40 km/h 49% 0.00 mm 237.84 W/m2
17:04 34.0 °C 22.0 °C 1006.4 hPa ESE 15 km/h 20 km/h 49% 0.00 mm 219.88 W/m2
17:09 34.0 °C 22.0 °C 1006.4 hPa SE 26 km/h 32 km/h 51% 0.00 mm 193.58 W/m2
17:14 33.0 °C 22.0 °C 1006.4 hPa SE 22 km/h 28 km/h 52% 0.00 mm 85.24 W/m2
17:19 33.0 °C 22.0 °C 1006.4 hPa SE 19 km/h 24 km/h 51% 0.00 mm 74.75 W/m2
17:24 33.0 °C 22.0 °C 1006.4 hPa ESE 17 km/h 20 km/h 52% 0.00 mm 66.69 W/m2
17:29 33.0 °C 22.0 °C 1006.4 hPa SE 26 km/h 36 km/h 53% 0.00 mm 60.09 W/m2
17:34 33.0 °C 22.0 °C 1006.4 hPa SE 25 km/h 28 km/h 54% 0.00 mm 50.48 W/m2
17:39 33.0 °C 23.0 °C 1006.4 hPa ESE 14 km/h 20 km/h 54% 0.00 mm 42.04 W/m2
17:44 33.0 °C 23.0 °C 1006.8 hPa SE 17 km/h 20 km/h 55% 0.00 mm 35.12 W/m2
17:49 33.0 °C 23.0 °C 1006.8 hPa ESE 17 km/h 24 km/h 56% 0.00 mm 28.05 W/m2
17:54 33.0 °C 23.0 °C 1006.8 hPa ESE 16 km/h 20 km/h 57% 0.00 mm 21.10 W/m2
17:59 32.0 °C 23.0 °C 1006.8 hPa ESE 22 km/h 28 km/h 57% 0.00 mm 13.04 W/m2
18:04 32.0 °C 23.0 °C 1006.8 hPa ESE 19 km/h 28 km/h 58% 0.00 mm 7.59 W/m2
18:09 32.0 °C 23.0 °C 1006.8 hPa ESE 15 km/h 20 km/h 59% 0.00 mm 3.83 W/m2
18:14 32.0 °C 23.0 °C 1007.1 hPa ESE 20 km/h 28 km/h 59% 0.00 mm 0.73 W/m2
18:19 32.0 °C 23.0 °C 1007.1 hPa ESE 15 km/h 20 km/h 61% 0.00 mm 0.00 W/m2
18:24 32.0 °C 23.0 °C 1007.1 hPa ESE 15 km/h 20 km/h 61% 0.00 mm 0.00 W/m2
18:29 32.0 °C 23.0 °C 1007.1 hPa ESE 15 km/h 24 km/h 62% 0.00 mm 0.00 W/m2
18:34 32.0 °C 24.0 °C 1007.5 hPa East 18 km/h 24 km/h 63% 0.00 mm 0.00 W/m2
18:39 31.0 °C 24.0 °C 1007.5 hPa ESE 16 km/h 20 km/h 63% 0.00 mm 0.00 W/m2
18:44 31.0 °C 24.0 °C 1007.5 hPa NNW 12 km/h 20 km/h 64% 0.00 mm 0.00 W/m2
18:49 31.0 °C 24.0 °C 1007.5 hPa ESE 9 km/h 12 km/h 64% 0.00 mm 0.00 W/m2
18:54 31.0 °C 24.0 °C 1007.5 hPa East 12 km/h 16 km/h 65% 0.00 mm 0.00 W/m2
18:59 31.0 °C 24.0 °C 1007.5 hPa ESE 10 km/h 12 km/h 65% 0.00 mm 0.00 W/m2
19:04 31.0 °C 24.0 °C 1007.8 hPa SE 7 km/h 12 km/h 65% 0.00 mm 0.00 W/m2
19:09 31.0 °C 24.0 °C 1007.8 hPa ESE 11 km/h 16 km/h 66% 0.00 mm 0.00 W/m2
19:14 31.0 °C 24.0 °C 1007.8 hPa East 9 km/h 12 km/h 66% 0.00 mm 0.00 W/m2
19:19 31.0 °C 24.0 °C 1008.1 hPa ESE 3 km/h 4 km/h 66% 0.00 mm 0.00 W/m2
19:24 31.0 °C 24.0 °C 1008.1 hPa ESE 14 km/h 20 km/h 66% 0.00 mm 0.00 W/m2
19:29 31.0 °C 24.0 °C 1007.8 hPa NE 7 km/h 12 km/h 66% 0.00 mm 0.00 W/m2
19:34 31.0 °C 24.0 °C 1008.1 hPa ESE 10 km/h 12 km/h 67% 0.00 mm 0.00 W/m2
19:39 31.0 °C 24.0 °C 1008.1 hPa SE 15 km/h 20 km/h 67% 0.00 mm 0.00 W/m2
19:44 31.0 °C 24.0 °C 1008.5 hPa ESE 12 km/h 16 km/h 67% 0.00 mm 0.00 W/m2
19:49 31.0 °C 24.0 °C 1008.5 hPa ESE 8 km/h 8 km/h 67% 0.00 mm 0.00 W/m2
19:54 31.0 °C 24.0 °C 1008.5 hPa East 8 km/h 12 km/h 67% 0.00 mm 0.00 W/m2
19:59 31.0 °C 24.0 °C 1008.5 hPa East 9 km/h 12 km/h 67% 0.00 mm 0.00 W/m2
20:04 31.0 °C 24.0 °C 1008.5 hPa ESE 10 km/h 12 km/h 67% 0.00 mm 0.00 W/m2
20:09 31.0 °C 24.0 °C 1008.5 hPa SE 12 km/h 16 km/h 67% 0.00 mm 0.00 W/m2
20:14 30.0 °C 24.0 °C 1008.8 hPa ENE 11 km/h 12 km/h 67% 0.00 mm 0.00 W/m2
20:19 30.0 °C 24.0 °C 1008.8 hPa ESE 6 km/h 12 km/h 67% 0.00 mm 0.00 W/m2
20:24 30.0 °C 24.0 °C 1008.8 hPa SE 7 km/h 12 km/h 67% 0.00 mm 0.00 W/m2
20:29 30.0 °C 24.0 °C 1008.8 hPa SE 8 km/h 12 km/h 68% 0.00 mm 0.00 W/m2
20:34 30.0 °C 24.0 °C 1008.8 hPa SE 13 km/h 16 km/h 68% 0.00 mm 0.00 W/m2
20:39 30.0 °C 24.0 °C 1009.1 hPa East 8 km/h 8 km/h 68% 0.00 mm 0.00 W/m2
20:44 30.0 °C 24.0 °C 1009.1 hPa ESE 7 km/h 12 km/h 68% 0.00 mm 0.00 W/m2
20:49 30.0 °C 24.0 °C 1009.1 hPa ESE 9 km/h 16 km/h 68% 0.00 mm 0.00 W/m2
20:54 30.0 °C 24.0 °C 1009.1 hPa ESE 9 km/h 16 km/h 68% 0.00 mm 0.00 W/m2
20:59 30.0 °C 24.0 °C 1009.5 hPa SE 10 km/h 16 km/h 68% 0.00 mm 0.00 W/m2
21:04 30.0 °C 24.0 °C 1009.5 hPa ESE 11 km/h 16 km/h 68% 0.00 mm 0.00 W/m2
21:09 30.0 °C 24.0 °C 1009.5 hPa East 8 km/h 12 km/h 68% 0.00 mm 0.00 W/m2
21:14 30.0 °C 24.0 °C 1009.5 hPa ESE 10 km/h 12 km/h 68% 0.00 mm 0.00 W/m2
21:19 30.0 °C 23.0 °C 1009.1 hPa SE 10 km/h 12 km/h 68% 0.00 mm 0.00 W/m2
21:24 30.0 °C 24.0 °C 1009.5 hPa East 11 km/h 16 km/h 69% 0.00 mm 0.00 W/m2
21:29 30.0 °C 24.0 °C 1009.5 hPa ESE 13 km/h 16 km/h 69% 0.00 mm 0.00 W/m2
21:34 30.0 °C 24.0 °C 1009.5 hPa ESE 14 km/h 16 km/h 70% 0.00 mm 0.00 W/m2
21:39 30.0 °C 24.0 °C 1009.5 hPa SE 15 km/h 20 km/h 70% 0.00 mm 0.00 W/m2
21:44 30.0 °C 24.0 °C 1009.8 hPa ESE 9 km/h 12 km/h 70% 0.00 mm 0.00 W/m2
21:49 30.0 °C 24.0 °C 1009.8 hPa ESE 13 km/h 16 km/h 71% 0.00 mm 0.00 W/m2
21:54 30.0 °C 24.0 °C 1009.8 hPa ESE 9 km/h 12 km/h 71% 0.00 mm 0.00 W/m2
21:59 30.0 °C 24.0 °C 1009.8 hPa SE 10 km/h 12 km/h 71% 0.00 mm 0.00 W/m2
22:04 30.0 °C 24.0 °C 1010.2 hPa ESE 10 km/h 12 km/h 71% 0.00 mm 0.00 W/m2
22:09 30.0 °C 24.0 °C 1009.8 hPa ESE 11 km/h 12 km/h 71% 0.00 mm 0.00 W/m2
22:14 30.0 °C 24.0 °C 1010.2 hPa East 9 km/h 12 km/h 71% 0.00 mm 0.00 W/m2
22:19 30.0 °C 24.0 °C 1010.2 hPa East 11 km/h 16 km/h 71% 0.00 mm 0.00 W/m2
22:24 30.0 °C 24.0 °C 1010.2 hPa SE 5 km/h 8 km/h 71% 0.00 mm 0.00 W/m2
22:29 30.0 °C 24.0 °C 1010.2 hPa SE 9 km/h 12 km/h 71% 0.00 mm 0.00 W/m2
22:34 30.0 °C 24.0 °C 1010.2 hPa ESE 9 km/h 12 km/h 71% 0.00 mm 0.00 W/m2
22:39 29.0 °C 24.0 °C 1010.2 hPa SE 12 km/h 16 km/h 72% 0.00 mm 0.00 W/m2
22:44 30.0 °C 24.0 °C 1010.2 hPa East 8 km/h 8 km/h 71% 0.00 mm 0.00 W/m2
22:49 30.0 °C 24.0 °C 1010.2 hPa SE 8 km/h 12 km/h 71% 0.00 mm 0.00 W/m2
22:54 29.0 °C 24.0 °C 1010.5 hPa SE 16 km/h 20 km/h 71% 0.00 mm 0.00 W/m2
22:59 29.0 °C 24.0 °C 1010.5 hPa SE 6 km/h 12 km/h 71% 0.00 mm 0.00 W/m2
23:04 30.0 °C 24.0 °C 1010.2 hPa ESE 10 km/h 12 km/h 71% 0.00 mm 0.00 W/m2
23:09 29.0 °C 24.0 °C 1010.2 hPa East 5 km/h 8 km/h 71% 0.00 mm 0.00 W/m2
23:14 29.0 °C 24.0 °C 1010.2 hPa NE 4 km/h 8 km/h 71% 0.00 mm 0.00 W/m2
23:19 29.0 °C 24.0 °C 1010.2 hPa ESE 8 km/h 12 km/h 71% 0.00 mm 0.00 W/m2
23:24 29.0 °C 24.0 °C 1010.5 hPa ESE 8 km/h 12 km/h 71% 0.00 mm 0.00 W/m2
23:29 29.0 °C 23.0 °C 1010.2 hPa ENE 4 km/h 8 km/h 70% 0.00 mm 0.00 W/m2
23:34 29.0 °C 23.0 °C 1010.5 hPa East 7 km/h 12 km/h 70% 0.00 mm 0.00 W/m2
23:39 29.0 °C 23.0 °C 1010.2 hPa SE 2 km/h 4 km/h 69% 0.00 mm 0.00 W/m2
23:44 29.0 °C 23.0 °C 1010.2 hPa SE 2 km/h 4 km/h 69% 0.00 mm 0.00 W/m2
23:49 29.0 °C 23.0 °C 1010.2 hPa SE 3 km/h 4 km/h 69% 0.00 mm 0.00 W/m2
23:54 29.0 °C 23.0 °C 1010.5 hPa ESE 1 km/h 4 km/h 69% 0.00 mm 0.00 W/m2
23:59 29.0 °C 23.0 °C 1010.5 hPa NE 1 km/h 4 km/h 69% 0.00 mm 0.00 W/m2
PIMOHWEATHER Philippines
Compliments of Weather Underground - 2 mb